Regional Weather Roundup
Issued by NWS Sioux Falls, SD

Home | Current Version | Previous Version | Graphics & Text | Print | Product List | Glossary Off
Versions: 1 2 3 4 5 6 7 8 9 10 11 12 13 14 15 16 17 18 19 20 21 22 23 24 25 26 27 28 29 30 31 32 33 34 35 36 37 38 39 40 41 42 43 44 45 46 47 48 49 50

424
ASUS43 KFSD 131210
RWRFSD

WEATHER ROUNDUP FOR SE SOUTH DAKOTA/SW MINNESOTA/NW IOWA
NATIONAL WEATHER SERVICE SIOUX FALLS SD
600 AM CST WED DEC 13 2017

NOTE: "FAIR" INDICATES FEW OR NO CLOUDS BELOW 12,000 FEET WITH NO
SIGNIFICANT WEATHER AND OR OBSTRUCTIONS TO VISIBILITY.


SDZ038>040-050-052>070-131300-
SOUTHEAST SOUTH DAKOTA

CITY           SKY/WX    TMP DP  RH WIND       PRES   REMARKS
BROOKINGS      MIX PCPN  37  34  89 NW29G38   29.54R
CHAMBERLAIN    MOCLDY    46  29  50 NW22G39   29.77R
6HR MIN TEMP:  45; 6HR MAX TEMP:  54;

HURON          MOCLDY    42  33  70 NW25G38   29.66R
6HR MIN TEMP:  42; 6HR MAX TEMP:  50; 6HR PCP: TRACE;

MADISON        CLOUDY    37  37 100 NW31G37   29.59R
MITCHELL       CLOUDY    47  32  56 NW41G55   29.67R
6HR MIN TEMP:  44; 6HR MAX TEMP:  51; 6HR PCP: TRACE;

SIOUX FALLS    LGT RAIN  45  32  60 NW39G55   29.56R
6HR MIN TEMP:  35; 6HR MAX TEMP:  47; 6HR PCP: TRACE;

WINNER         FAIR      46  24  42 NW26G43   29.82R
YANKTON        CLOUDY    48  29  47 NW32G47   29.64R
$$

MNZ071-072-080-081-089-090-097-098-131300-
SOUTHWEST MINNESOTA

CITY           SKY/WX    TMP DP  RH WIND       PRES   REMARKS
FAIRMONT       CLOUDY    41  26  55 NW26G32   29.38S
JACKSON        PTCLDY    39  27  60 MISG      29.42
LUVERNE        MOCLDY    41  32  70 NW25G37   29.52R
MARSHALL       LGT RAIN  36  34  92 NW28G37   29.48R
6HR MIN TEMP:  36; 6HR MAX TEMP:  45; 6HR PCP:  0.01;

MONTEVIDEO     DRIZZLE   36  30  80 N25G35    29.47R
PIPESTONE      CLOUDY    37  32  81 N31G38    29.52R
REDWOOD FALLS  CLOUDY    40  30  67 NW25G46   29.41R
WINDOM           N/A     39  25  56 NW24G39   29.42R
WORTHINGTON    CLOUDY    39  33  79 NW32G45   29.46R
$$

IAZ001>003-012>014-020>022-031-032-NEZ013-014-SDZ071-131300-
NORTHWEST IOWA

CITY           SKY/WX    TMP DP  RH WIND       PRES   REMARKS
CHEROKEE       CLOUDY    46  30  54 NW17G35   29.52R
DENISON        CLOUDY    46  25  42 W15G22    29.55F
ESTHERVILLE    CLOUDY    40  27  59 NW28G41   29.41S
LE MARS        CLOUDY    48  30  49 NW28G43   29.56R
ORANGE CITY    PTCLDY    46  34  61 NW26G39   29.53R
SHELDON        CLOUDY    43  34  70 NW31G39   29.49R
SIOUX CITY     MOCLDY    51  28  41 NW32G47   29.56S
6HR MIN TEMP:  23; 6HR MAX TEMP:  51; 6HR PCP: TRACE;

SPENCER        CLOUDY    43  32  65 NW29G46   29.46R
6HR MIN TEMP:  34; 6HR MAX TEMP:  44;

STORM LAKE     CLOUDY    45  28  53 NW26G35   29.49R
$$

ABBREVIATIONS USED IN REMARKS
   TC - TEMPERATURE IN CELSIUS
  WCI - WIND CHILL INDEX
   HX - HEAT INDEX
  VSB - VISIBILITY





USA.gov is the U.S. government's official web portal to all federal, state and local government web resources and services.